Weather History for KMMU - March, 2013

Change the Weather History Date:

Thursday, March 7, 2013

  Actual Average Record
Temperature  
Mean Temperature 37 °F -  
Max Temperature 41 °F 45 °F 71 °F (1946)
Min Temperature 33 °F 26 °F 3 °F (1936)
Degree Days  
Heating Degree Days 28    
Moisture  
Dew Point 28 °F    
Average Humidity 71    
Maximum Humidity 93    
Minimum Humidity 56    
Precipitation  
Precipitation 0.00 in - - ()
Sea Level Pressure  
Sea Level Pressure 30.02 in    
Wind  
Wind Speed 13 mph (North)    
Max Wind Speed 20 mph    
Max Gust Speed 29 mph    
Visibility 7 miles    
Events Rain , Snow    
Averages and records for this station are not official NWS values.
T = Trace of Precipitation, MM = Missing Value Source: NWS Daily Summary

Daily Weather History Graph

Daily Weather History Graph

Search for Another Location

Airport or City:

Trip Planner

Search our weather history database for the weather conditions in past years. The results will help you decide how hot, cold, wet, or windy it might be!

Date:

Astronomy

Mar. 07, 2013 Rise Set
Actual Time 6:21 AM EST 5:55 PM EST
Civil Twilight 5:54 AM EST 6:23 PM EST
Nautical Twilight 5:22 AM EST 6:55 PM EST
Astronomical Twilight 4:51 AM EST 7:26 PM EST
Moon 3:21 AM EST (3/7) 1:39 PM EST (3/7)
Length of Visible Light 12h 28m
Length of Day
11h 33m
Waning Crescent, 20% of the Moon is Illuminated
Mar 7
Waning Crescent
Mar 11
New
Mar 19
First Quarter
Mar 27
Full
Apr 3
Last Quarter

Hourly Weather History & Observations

Time (EST) Temp. Windchill Dew Point Humidity Pressure Visibility Wind Dir Wind Speed Gust Speed Precip Events Conditions
12:15 AM 39.2 °F 31.2 °F 26.6 °F 61% 29.94 in 10.0 mi North 13.8 mph 19.6 mph N/A   Overcast
12:35 AM 39.2 °F 30.5 °F 24.8 °F 56% 29.94 in 10.0 mi NNE 16.1 mph 25.3 mph N/A   Overcast
12:55 AM 39.2 °F 30.8 °F 24.8 °F 56% 29.94 in 10.0 mi NNE 15.0 mph 24.2 mph N/A   Overcast
1:15 AM 39.2 °F 29.8 °F 24.8 °F 56% 29.94 in 10.0 mi NNE 18.4 mph 26.5 mph N/A   Overcast
1:35 AM 39.2 °F 29.8 °F 24.8 °F 56% 29.95 in 10.0 mi NNE 18.4 mph 26.5 mph N/A   Overcast
1:55 AM 39.2 °F 31.2 °F 24.8 °F 56% 29.95 in 10.0 mi North 13.8 mph 27.6 mph N/A   Overcast
2:15 AM 39.2 °F 30.5 °F 24.8 °F 56% 29.95 in 10.0 mi North 16.1 mph 24.2 mph N/A   Unknown
2:35 AM 39.2 °F 30.8 °F 26.6 °F 61% 29.95 in 10.0 mi NNE 15.0 mph 23.0 mph N/A   Unknown
2:55 AM 39.2 °F 32.0 °F 28.4 °F 65% 29.95 in 10.0 mi NNE 11.5 mph - N/A   Unknown
3:15 AM 39.2 °F 31.2 °F 26.6 °F 61% 29.95 in 10.0 mi North 13.8 mph 19.6 mph N/A   Overcast
3:35 AM 39.2 °F 30.8 °F 26.6 °F 61% 29.95 in 10.0 mi North 15.0 mph 25.3 mph N/A   Overcast
3:55 AM 39.2 °F 31.2 °F 26.6 °F 61% 29.96 in 10.0 mi North 13.8 mph 20.7 mph N/A   Overcast
4:15 AM 39.2 °F 30.8 °F 26.6 °F 61% 29.96 in 10.0 mi North 15.0 mph 24.2 mph N/A   Overcast
4:35 AM 39.2 °F 30.8 °F 24.8 °F 56% 29.97 in 10.0 mi North 15.0 mph 21.9 mph N/A   Overcast
4:55 AM 37.4 °F 29.8 °F 24.8 °F 60% 29.98 in 10.0 mi NNE 11.5 mph 20.7 mph N/A   Overcast
5:15 AM 37.4 °F 28.9 °F 24.8 °F 60% 29.98 in 10.0 mi North 13.8 mph 24.2 mph N/A   Overcast
5:35 AM 37.4 °F 28.9 °F 24.8 °F 60% 29.99 in 10.0 mi North 13.8 mph 21.9 mph N/A   Overcast
6:45 AM 35.6 °F 26.2 °F 24.8 °F 65% 30.00 in 10.0 mi NNE 15.0 mph 28.8 mph N/A   Mostly Cloudy
7:45 AM 35.6 °F 27.5 °F 24.8 °F 65% 30.02 in 10.0 mi NNE 11.5 mph 25.3 mph N/A   Mostly Cloudy
8:45 AM 37.4 °F 30.3 °F 24.8 °F 60% 30.04 in 10.0 mi NNE 10.4 mph 24.2 mph N/A   Overcast
9:45 AM 37.4 °F 29.8 °F 26.6 °F 65% 30.03 in 9.0 mi NNE 11.5 mph 28.8 mph N/A Snow Light Snow
10:45 AM 39.2 °F 29.6 °F 24.8 °F 56% 30.04 in 10.0 mi NNE 19.6 mph 28.8 mph N/A   Overcast
11:45 AM 41.0 °F 33.1 °F 26.6 °F 57% 30.04 in 10.0 mi NNE 15.0 mph 24.2 mph N/A   Overcast
12:45 PM 39.2 °F 32.0 °F 28.4 °F 65% 30.04 in 8.0 mi North 11.5 mph 23.0 mph N/A   Overcast
1:45 PM 41.0 °F 34.3 °F 30.2 °F 65% 30.03 in 8.0 mi NNE 11.5 mph 21.9 mph N/A   Overcast
2:45 PM 39.2 °F 31.6 °F 33.8 °F 81% 30.04 in 6.0 mi NNE 12.7 mph 17.3 mph N/A Rain Light Rain
3:45 PM 37.4 °F 30.3 °F 33.8 °F 87% 30.06 in 4.0 mi NNE 10.4 mph 19.6 mph N/A Rain Light Rain
4:45 PM 35.6 °F 26.6 °F 32.0 °F 87% 30.07 in 4.0 mi North 13.8 mph 20.7 mph N/A Snow Light Snow
5:00 PM 35.6 °F 29.2 °F 32.0 °F 87% 30.08 in 2.5 mi North 8.1 mph 17.3 mph N/A Snow Snow
5:45 PM 35.6 °F 30.7 °F 32.0 °F 87% 30.09 in 2.0 mi North 5.8 mph - N/A Rain Rain
6:45 PM 33.8 °F 26.4 °F 32.0 °F 93% 30.09 in 2.5 mi North 9.2 mph - N/A Snow Light Snow
7:45 PM 33.8 °F 26.4 °F 32.0 °F 93% 30.09 in 3.0 mi North 9.2 mph 16.1 mph N/A Snow Light Snow
8:45 PM 33.8 °F 27.0 °F 32.0 °F 93% 30.09 in 3.0 mi North 8.1 mph - N/A Snow Light Snow
9:45 PM 33.8 °F 25.8 °F 32.0 °F 93% 30.08 in 3.0 mi North 10.4 mph - N/A Snow Light Snow
9:55 PM 35.6 °F 29.2 °F 32.0 °F 87% 30.07 in 4.0 mi North 8.1 mph - N/A Snow Light Snow
10:15 PM 35.6 °F 29.9 °F 32.0 °F 87% 30.07 in 4.0 mi NNW 6.9 mph - N/A Snow Light Snow
10:35 PM 35.6 °F 31.7 °F 32.0 °F 87% 30.07 in 2.5 mi NNW 4.6 mph - N/A Snow Light Snow
10:55 PM 35.6 °F 29.2 °F 32.0 °F 87% 30.07 in 7.0 mi NNW 8.1 mph - N/A Snow Light Snow
11:15 PM 35.6 °F 31.7 °F 32.0 °F 87% 30.07 in 3.0 mi North 4.6 mph - N/A Snow Light Snow
11:35 PM 35.6 °F 31.7 °F 32.0 °F 87% 30.07 in 2.0 mi NNW 4.6 mph - N/A Snow Light Snow
11:55 PM 35.6 °F 30.7 °F 32.0 °F 87% 30.07 in 1.5 mi NNW 5.8 mph - N/A Snow Light Snow